This is the latest recevied weather packets stored in our database for station/object N5JXS. If no packets are shown the sender has not sent any weather packets the latest 10 day(s).
| Time | Temp. | Humidity | Pressure | Rain* | Wind** | Luminosity | Snow |
|---|---|---|---|---|---|---|---|
| 1777736806 | 10° C | 32% | 1026.2 hPa | 0 mm | - | 151 W/m² | - |
| 1777736177 | 10° C | 32% | 1026.1 hPa | 0 mm | - | 33 W/m² | - |
| 1777735875 | 9.44° C | 34% | 1026.5 hPa | 0 mm | - | 42 W/m² | - |
| 1777735572 | 9.44° C | 32% | 1026.3 hPa | 0 mm | - | 35 W/m² | - |
| 1777735269 | 9.44° C | 32% | 1026.3 hPa | 0 mm | - | 33 W/m² | - |
| 1777734966 | 9.44° C | 33% | 1026.3 hPa | 0 mm | - | 122 W/m² | - |
| 1777734664 | 8.89° C | 33% | 1026.3 hPa | 0 mm | - | 56 W/m² | - |
| 1777734361 | 8.89° C | 32% | 1026.3 hPa | 0 mm | - | 161 W/m² | - |
| 1777734057 | 8.89° C | 33% | 1026.3 hPa | 0 mm | - | 201 W/m² | - |
| 1777733754 | 8.89° C | 35% | 1026.5 hPa | 0 mm | - | 28 W/m² | - |
| 1777733450 | 8.33° C | 33% | 1026.5 hPa | 0 mm | - | 28 W/m² | - |
| 1777733146 | 8.33° C | 36% | 1026.6 hPa | 0 mm | - | 26 W/m² | - |
| 1777732843 | 7.78° C | 34% | 1026.5 hPa | 0 mm | - | 27 W/m² | - |
| 1777732540 | 7.78° C | 36% | 1026.7 hPa | 0 mm | - | 26 W/m² | - |
| 1777732238 | 7.22° C | 39% | 1026.6 hPa | 0 mm | - | 26 W/m² | - |
| 1777731935 | 7.22° C | 38% | 1026.6 hPa | 0 mm | - | 27 W/m² | - |
| 1777731631 | 6.67° C | 40% | 1026.3 hPa | 0 mm | - | 25 W/m² | - |
| 1777731329 | 5.56° C | 47% | 1026.6 hPa | 0 mm | - | 24 W/m² | - |
| 1777731027 | 5.56° C | 45% | 1026.5 hPa | 0 mm | - | 23 W/m² | - |
| 1777730725 | 5.56° C | 46% | 1026.5 hPa | 0 mm | - | 24 W/m² | - |
| 1777730421 | 5° C | 46% | 1026.3 hPa | 0 mm | - | 29 W/m² | - |
| 1777730117 | 5° C | 44% | 1026.5 hPa | 0 mm | - | 23 W/m² | - |
| 1777729813 | 5° C | 44% | 1026.7 hPa | 0 mm | - | 23 W/m² | - |
| 1777729510 | 4.44° C | 45% | 1026.5 hPa | 0 mm | - | 26 W/m² | - |
| 1777729207 | 4.44° C | 46% | 1026.6 hPa | 0 mm | - | 27 W/m² | - |
* Rain latest hour (hover to see other rain measurements)
** Current wind speed in m/s (hover to see current wind gust speed)